Location: Bassano
(45.7667°N, 11.7333°E)
Time: 19:11:54
(UTC+00:00)

STARLINK-1277 - Pass Details

Date: 07 June 2020
Orbit: 548 x 551 km, 53.0° (Epoch: 12 July)

Event Time Altitude Azimuth Distance (km) Brightness Sun altitude
Exits shadow 23:20:26 - 100° (E) 2,142 6.5 -21.4°
Enters shadow 00:21:40 -63° 233° (SW) 11,959 10.4 -19.6°
Maximum altitude 00:57:06 49° 141° (SE) 710 3.9 -17.4°
